This is the latest recevied weather packets stored in our database for station/object KM6YFK-13. If no packets are shown the sender has not sent any weather packets the latest 10 day(s).
| Time | Temp. | Humidity | Pressure | Rain* | Wind** | Luminosity | Snow |
|---|---|---|---|---|---|---|---|
| 1777735407 | 26.67° C | 67% | 1010.5 hPa | 0 mm | - | 366 W/m² | - |
| 1777735107 | 26.11° C | 69% | 1010.5 hPa | 0 mm | - | 347 W/m² | - |
| 1777734808 | 26.11° C | 71% | 1010.7 hPa | 0 mm | - | 475 W/m² | - |
| 1777734507 | 25.56° C | 74% | 1010.8 hPa | 0 mm | - | 663 W/m² | - |
| 1777734207 | 25.56° C | 75% | 1010.9 hPa | 0 mm | - | 450 W/m² | - |
| 1777733908 | 25.56° C | 76% | 1011.2 hPa | 0 mm | - | 403 W/m² | - |
| 1777733607 | 25° C | 78% | 1011.1 hPa | 0 mm | - | 326 W/m² | - |
| 1777733307 | 25° C | 78% | 1011 hPa | 0 mm | - | 292 W/m² | - |
| 1777733009 | 25° C | 79% | 1011.1 hPa | 0 mm | - | 287 W/m² | - |
| 1777732707 | 25° C | 81% | 1011 hPa | 0 mm | - | 281 W/m² | - |
| 1777732408 | 24.44° C | 80% | 1011 hPa | 0 mm | - | 240 W/m² | - |
| 1777732107 | 24.44° C | 80% | 1011 hPa | 0 mm | - | 209 W/m² | - |
| 1777731808 | 24.44° C | 80% | 1011 hPa | 0 mm | - | 239 W/m² | - |
| 1777731507 | 24.44° C | 81% | 1010.9 hPa | 0 mm | - | 215 W/m² | - |
| 1777731207 | 24.44° C | 82% | 1010.9 hPa | 0 mm | - | 219 W/m² | - |
| 1777730908 | 24.44° C | 84% | 1010.9 hPa | 0 mm | - | 262 W/m² | - |
| 1777730609 | 23.89° C | 85% | 1011 hPa | 0 mm | - | 247 W/m² | - |
| 1777730307 | 23.89° C | 87% | 1011.1 hPa | 0 mm | - | 221 W/m² | - |
| 1777730008 | 23.89° C | 87% | 1011.2 hPa | 0 mm | - | 178 W/m² | - |
| 1777729708 | 23.33° C | 88% | 1011.2 hPa | 0 mm | - | 176 W/m² | - |
| 1777729407 | 23.33° C | 90% | 1011.2 hPa | 0 mm | - | 173 W/m² | - |
| 1777729108 | 23.33° C | 90% | 1011.1 hPa | 0 mm | - | 203 W/m² | - |
| 1777728808 | 23.33° C | 91% | 1011 hPa | 0 mm | - | 163 W/m² | - |
| 1777728508 | 23.33° C | 92% | 1011 hPa | 0 mm | - | 219 W/m² | - |
| 1777728208 | 23.33° C | 92% | 1010.9 hPa | 0 mm | - | 228 W/m² | - |
* Rain latest hour (hover to see other rain measurements)
** Current wind speed in m/s (hover to see current wind gust speed)